Location: *
(45.5667°S, 177.5167°W)
Time: 05:31:07
(UTC+00:00)

USA 305 - Pass Details

Date: 29 May 2022
Orbit: 549 x 553 km, 54.0° (Epoch: 14 June)

Event Time Altitude Azimuth Distance (km) Brightness Sun altitude
Rises 04:54:48 0° 236° (SW) 2,770 6.9 -6.6°
Reaches altitude 10° 04:57:05 10° 232° (SW) 1,871 5.9 -7.0°
Maximum altitude 05:01:18 62° 151° (SSE) 641 2.9 -7.6°
Drops below altitude 10° 05:05:29 10° 69° (ENE) 1,856 5.1 -8.3°
Enters shadow 05:07:24 - 66° (ENE) 2,608 5.9 -8.6°
